RYR2KD LEZL-LPPR

Flight info

Callsign RYR2KD
Flight time 0h 59m
Altitude 34000
Route SANTA M744 LASIB DCT ABLEG
Aircraft B738/M-SADE3FGHIJ1J7LP2RWXY/SB1D1G1

Departure

Time 2026-04-30 20:50
Airport Seville Airport (LEZL)

Arrival

Time 2026-04-30 21:50
Airport Francisco de Sá Carneiro Airport (LPPR)
Time Latitude Longitude Altitude Speed Heading
2026-04-30 20:06 37.42122 -5.90064 94 ft 0 kts 354°
2026-04-30 20:40 37.42106 -5.90062 93 ft 3 kts 354°
2026-04-30 20:41 37.42069 -5.90057 93 ft 3 kts 354°
2026-04-30 20:41 37.42052 -5.90055 93 ft 3 kts 354°
2026-04-30 20:41 37.42035 -5.90053 93 ft 0 kts 354°
2026-04-30 20:43 37.42036 -5.90053 93 ft 1 kts 354°
2026-04-30 20:43 37.42047 -5.90044 93 ft 3 kts 51°
2026-04-30 20:43 37.42053 -5.90008 93 ft 6 kts 88°
2026-04-30 20:44 37.42006 -5.89884 94 ft 9 kts 149°
2026-04-30 20:44 37.41982 -5.89813 95 ft 9 kts 93°
2026-04-30 20:44 37.41981 -5.89654 96 ft 10 kts 89°
2026-04-30 20:45 37.41982 -5.89421 98 ft 17 kts 90°
2026-04-30 20:45 37.41983 -5.89260 99 ft 20 kts 89°
2026-04-30 20:45 37.41983 -5.89074 100 ft 22 kts 90°
2026-04-30 20:46 37.41985 -5.88518 103 ft 20 kts 90°
2026-04-30 20:46 37.41985 -5.88344 104 ft 20 kts 90°
2026-04-30 20:47 37.41986 -5.88012 106 ft 18 kts 89°
2026-04-30 20:47 37.41987 -5.87853 107 ft 18 kts 90°
2026-04-30 20:48 37.41986 -5.87560 109 ft 13 kts 97°
2026-04-30 20:48 37.41950 -5.87457 111 ft 13 kts 133°
2026-04-30 20:48 37.41880 -5.87428 114 ft 10 kts 180°
2026-04-30 20:48 37.41815 -5.87432 117 ft 9 kts 201°
2026-04-30 20:49 37.41799 -5.87510 116 ft 10 kts 271°
2026-04-30 20:49 37.41800 -5.87636 113 ft 29 kts 270°
2026-04-30 20:49 37.41797 -5.88199 105 ft 99 kts 270°
2026-04-30 20:50 37.41798 -5.90773 519 ft 169 kts 269°
2026-04-30 20:50 37.41921 -5.92204 1381 ft 163 kts 290°
2026-04-30 20:50 37.42648 -5.93365 1907 ft 184 kts 318°
2026-04-30 20:50 37.43695 -5.94511 2193 ft 210 kts 317°
2026-04-30 20:51 37.44797 -5.95747 2657 ft 220 kts 317°
2026-04-30 20:51 37.47108 -5.98402 4065 ft 226 kts 317°
2026-04-30 20:51 37.48262 -5.99752 4823 ft 228 kts 316°
2026-04-30 20:52 37.49434 -6.01136 5502 ft 234 kts 315°
2026-04-30 20:52 37.50670 -6.02606 5828 ft 258 kts 315°
2026-04-30 20:52 37.53425 -6.05898 6947 ft 280 kts 314°
2026-04-30 20:53 37.54843 -6.07596 7731 ft 282 kts 314°
2026-04-30 20:53 37.56265 -6.09302 8535 ft 283 kts 315°
2026-04-30 20:53 37.57695 -6.11022 9319 ft 285 kts 314°
2026-04-30 20:54 37.60325 -6.14824 10528 ft 300 kts 299°
2026-04-30 20:54 37.61000 -6.16340 10629 ft 315 kts 296°
2026-04-30 20:56 37.62740 -6.20489 11240 ft 337 kts 296°
2026-04-30 20:57 37.63862 -6.23098 11932 ft 340 kts 297°
2026-04-30 20:57 37.64014 -6.23445 12033 ft 341 kts 297°
2026-04-30 20:59 37.65311 -6.26379 12869 ft 343 kts 298°
2026-04-30 20:59 37.66487 -6.29020 13579 ft 348 kts 298°
2026-04-30 21:00 37.68884 -6.34399 14969 ft 355 kts 298°
2026-04-30 21:00 37.71321 -6.39886 16376 ft 361 kts 297°
2026-04-30 21:01 37.73803 -6.45483 17741 ft 369 kts 297°
2026-04-30 21:01 37.75062 -6.48327 18435 ft 372 kts 297°
2026-04-30 21:01 37.77599 -6.54065 19672 ft 377 kts 297°
2026-04-30 21:02 37.78887 -6.56980 20228 ft 381 kts 297°
2026-04-30 21:02 37.80185 -6.59923 20805 ft 384 kts 297°
2026-04-30 21:02 37.81473 -6.62846 21376 ft 387 kts 297°
2026-04-30 21:02 37.82788 -6.65833 21937 ft 390 kts 296°
2026-04-30 21:03 37.84116 -6.68850 22479 ft 394 kts 296°
2026-04-30 21:03 37.85452 -6.71891 23024 ft 397 kts 296°
2026-04-30 21:03 37.86798 -6.74952 23568 ft 400 kts 296°
2026-04-30 21:03 37.88157 -6.78040 24031 ft 403 kts 296°
2026-04-30 21:04 37.89522 -6.81154 24476 ft 406 kts 296°
2026-04-30 21:04 37.90893 -6.84292 24916 ft 409 kts 296°
2026-04-30 21:04 37.93652 -6.90607 25879 ft 411 kts 296°
2026-04-30 21:05 37.95043 -6.93796 26270 ft 415 kts 296°
2026-04-30 21:05 37.96443 -6.97005 26663 ft 418 kts 296°
2026-04-30 21:05 37.97851 -7.00237 27055 ft 420 kts 296°
2026-04-30 21:05 37.99268 -7.03491 27431 ft 424 kts 296°
2026-04-30 21:06 38.00696 -7.06777 27764 ft 427 kts 295°
2026-04-30 21:06 38.01943 -7.10192 28127 ft 427 kts 287°
2026-04-30 21:06 38.02530 -7.12572 28383 ft 426 kts 281°
2026-04-30 21:06 38.03104 -7.16255 28755 ft 428 kts 282°
2026-04-30 21:07 38.04297 -7.19737 29088 ft 438 kts 302°
2026-04-30 21:07 38.06349 -7.22598 29665 ft 440 kts 318°
2026-04-30 21:07 38.08896 -7.24624 30786 ft 428 kts 333°
2026-04-30 21:07 38.11653 -7.25956 31551 ft 421 kts 337°
2026-04-30 21:08 38.14428 -7.27145 31988 ft 420 kts 338°
2026-04-30 21:08 38.17211 -7.28290 32335 ft 421 kts 338°
2026-04-30 21:08 38.19988 -7.29430 32773 ft 418 kts 338°
2026-04-30 21:08 38.22734 -7.30571 33332 ft 412 kts 338°
2026-04-30 21:09 38.25435 -7.31710 33908 ft 406 kts 338°
2026-04-30 21:09 38.28115 -7.32857 34113 ft 409 kts 337°
2026-04-30 21:09 38.33522 -7.35202 34114 ft 409 kts 337°
2026-04-30 21:10 38.38859 -7.37527 34116 ft 402 kts 337°
2026-04-30 21:10 38.44152 -7.39843 34120 ft 404 kts 337°
2026-04-30 21:11 38.49522 -7.42198 34134 ft 413 kts 337°
2026-04-30 21:11 38.54973 -7.44588 34131 ft 414 kts 337°
2026-04-30 21:12 38.60427 -7.46981 34130 ft 414 kts 337°
2026-04-30 21:12 38.65870 -7.49372 34136 ft 413 kts 337°
2026-04-30 21:13 38.71319 -7.51772 34132 ft 415 kts 337°
2026-04-30 21:13 38.76788 -7.54185 34127 ft 417 kts 337°
2026-04-30 21:14 38.82282 -7.56613 34136 ft 418 kts 337°
2026-04-30 21:14 38.87799 -7.59055 34147 ft 420 kts 337°
2026-04-30 21:15 38.93340 -7.61510 34155 ft 419 kts 337°
2026-04-30 21:15 38.98709 -7.63888 34125 ft 406 kts 337°
2026-04-30 21:16 39.04040 -7.66261 34139 ft 406 kts 337°
2026-04-30 21:16 39.09382 -7.68643 34130 ft 406 kts 337°
2026-04-30 21:17 39.14764 -7.71048 34150 ft 415 kts 337°
2026-04-30 21:17 39.20271 -7.73509 34140 ft 421 kts 337°
2026-04-30 21:18 39.25817 -7.75992 34136 ft 423 kts 337°
2026-04-30 21:18 39.31380 -7.78485 34131 ft 423 kts 337°
2026-04-30 21:19 39.36938 -7.80981 34139 ft 423 kts 337°
2026-04-30 21:19 39.42493 -7.83479 34134 ft 423 kts 337°
2026-04-30 21:20 39.48049 -7.85983 34136 ft 422 kts 337°
2026-04-30 21:20 39.50776 -7.87213 33939 ft 419 kts 337°
2026-04-30 21:20 39.53497 -7.88439 33647 ft 410 kts 337°
2026-04-30 21:21 39.56186 -7.89653 33376 ft 410 kts 337°
2026-04-30 21:21 39.58892 -7.90879 33132 ft 412 kts 337°
2026-04-30 21:21 39.64299 -7.93330 32605 ft 411 kts 337°
2026-04-30 21:22 39.66997 -7.94554 32349 ft 411 kts 337°
2026-04-30 21:22 39.74992 -7.98183 31408 ft 401 kts 337°
2026-04-30 21:23 39.77616 -7.99377 31049 ft 398 kts 338°
2026-04-30 21:23 39.80223 -8.00563 30698 ft 396 kts 338°
2026-04-30 21:23 39.85412 -8.02930 29939 ft 393 kts 338°
2026-04-30 21:24 39.87982 -8.04103 29531 ft 391 kts 338°
2026-04-30 21:24 39.90539 -8.05271 29144 ft 388 kts 338°
2026-04-30 21:24 39.93084 -8.06434 28760 ft 386 kts 338°
2026-04-30 21:24 39.95605 -8.07587 28388 ft 383 kts 338°
2026-04-30 21:25 40.00602 -8.09876 27663 ft 378 kts 338°
2026-04-30 21:25 40.03072 -8.11009 27307 ft 376 kts 338°
2026-04-30 21:25 40.05536 -8.12140 26946 ft 374 kts 338°
2026-04-30 21:26 40.10413 -8.14381 26241 ft 369 kts 338°
2026-04-30 21:26 40.12830 -8.15493 25889 ft 367 kts 338°
2026-04-30 21:27 40.17628 -8.17703 25203 ft 364 kts 338°
2026-04-30 21:27 40.20018 -8.18805 24856 ft 363 kts 338°
2026-04-30 21:27 40.22398 -8.19903 24488 ft 363 kts 338°
2026-04-30 21:28 40.27157 -8.22102 23780 ft 362 kts 338°
2026-04-30 21:28 40.29527 -8.23198 23393 ft 361 kts 338°
2026-04-30 21:28 40.34234 -8.25376 22658 ft 357 kts 338°
2026-04-30 21:29 40.36566 -8.26457 22304 ft 355 kts 338°
2026-04-30 21:29 40.43443 -8.29648 21298 ft 348 kts 338°
2026-04-30 21:30 40.47980 -8.31758 20635 ft 344 kts 338°
2026-04-30 21:31 40.54690 -8.34883 19663 ft 339 kts 338°
2026-04-30 21:31 40.59126 -8.36954 19004 ft 337 kts 338°
2026-04-30 21:32 40.63532 -8.39014 18339 ft 335 kts 338°
2026-04-30 21:32 40.65722 -8.40038 17974 ft 333 kts 338°
2026-04-30 21:32 40.67903 -8.41059 17630 ft 332 kts 338°
2026-04-30 21:32 40.70071 -8.42074 17299 ft 330 kts 338°
2026-04-30 21:33 40.72231 -8.43073 16970 ft 328 kts 340°
2026-04-30 21:33 40.76726 -8.44123 16310 ft 328 kts 351°
2026-04-30 21:33 40.78986 -8.44464 15984 ft 326 kts 351°
2026-04-30 21:34 40.81236 -8.44814 15664 ft 325 kts 351°
2026-04-30 21:34 40.85700 -8.45567 15038 ft 322 kts 350°
2026-04-30 21:34 40.87914 -8.45960 14725 ft 320 kts 350°
2026-04-30 21:35 40.90118 -8.46357 14414 ft 319 kts 350°
2026-04-30 21:35 40.92311 -8.46756 14109 ft 318 kts 350°
2026-04-30 21:35 40.94497 -8.47155 13780 ft 317 kts 350°
2026-04-30 21:35 40.96678 -8.47553 13433 ft 315 kts 350°
2026-04-30 21:36 40.98841 -8.47949 13114 ft 313 kts 350°
2026-04-30 21:36 41.00987 -8.48357 12809 ft 310 kts 348°
2026-04-30 21:37 41.07260 -8.49983 11904 ft 303 kts 347°
2026-04-30 21:37 41.09324 -8.50535 11601 ft 302 kts 347°
2026-04-30 21:37 41.11378 -8.51080 11298 ft 300 kts 347°
2026-04-30 21:37 41.13423 -8.51619 10995 ft 299 kts 347°
2026-04-30 21:38 41.15458 -8.52152 10703 ft 298 kts 347°
2026-04-30 21:38 41.17485 -8.52684 10409 ft 297 kts 347°
2026-04-30 21:38 41.19509 -8.53213 10111 ft 296 kts 347°
2026-04-30 21:38 41.21524 -8.53740 9785 ft 295 kts 348°
2026-04-30 21:39 41.23531 -8.54265 9465 ft 293 kts 348°
2026-04-30 21:39 41.25528 -8.54788 9150 ft 292 kts 348°
2026-04-30 21:39 41.27533 -8.55313 8733 ft 295 kts 348°
2026-04-30 21:39 41.29539 -8.55838 8422 ft 293 kts 348°
2026-04-30 21:40 41.31537 -8.56361 8101 ft 292 kts 348°
2026-04-30 21:40 41.33523 -8.56881 7808 ft 290 kts 348°
2026-04-30 21:40 41.35504 -8.57398 7510 ft 289 kts 348°
2026-04-30 21:40 41.37471 -8.57910 7212 ft 288 kts 349°
2026-04-30 21:41 41.39431 -8.58422 6924 ft 287 kts 349°
2026-04-30 21:41 41.41370 -8.58928 6724 ft 282 kts 349°
2026-04-30 21:41 41.43284 -8.59428 6468 ft 279 kts 349°
2026-04-30 21:41 41.45179 -8.59927 6206 ft 274 kts 348°
2026-04-30 21:42 41.47022 -8.60425 5933 ft 266 kts 348°
2026-04-30 21:42 41.48805 -8.60908 5668 ft 258 kts 348°
2026-04-30 21:42 41.50542 -8.61383 5408 ft 251 kts 346°
2026-04-30 21:42 41.52060 -8.62370 5135 ft 247 kts 315°
2026-04-30 21:43 41.52961 -8.64249 4904 ft 240 kts 285°
2026-04-30 21:43 41.53149 -8.66422 4654 ft 235 kts 263°
2026-04-30 21:43 41.52890 -8.68566 4406 ft 234 kts 257°
2026-04-30 21:43 41.52565 -8.70672 4289 ft 227 kts 257°
2026-04-30 21:44 41.52144 -8.72671 4274 ft 223 kts 239°
2026-04-30 21:44 41.51087 -8.74115 4278 ft 219 kts 207°
2026-04-30 21:44 41.49619 -8.74482 4210 ft 220 kts 173°
2026-04-30 21:44 41.48113 -8.74140 3952 ft 220 kts 171°
2026-04-30 21:45 41.46609 -8.73803 3719 ft 217 kts 171°
2026-04-30 21:45 41.45157 -8.73452 3587 ft 207 kts 170°
2026-04-30 21:45 41.43762 -8.73095 3355 ft 201 kts 170°
2026-04-30 21:45 41.42408 -8.72742 3130 ft 196 kts 169°
2026-04-30 21:46 41.41082 -8.72394 2890 ft 192 kts 169°
2026-04-30 21:46 41.39791 -8.72055 2647 ft 185 kts 169°
2026-04-30 21:46 41.38557 -8.71731 2432 ft 178 kts 169°
2026-04-30 21:46 41.37352 -8.71415 2217 ft 175 kts 169°
2026-04-30 21:47 41.36174 -8.71107 2008 ft 170 kts 169°
2026-04-30 21:47 41.35016 -8.70803 1801 ft 165 kts 169°
2026-04-30 21:47 41.33906 -8.70512 1598 ft 161 kts 169°
2026-04-30 21:47 41.32811 -8.70225 1415 ft 162 kts 169°
2026-04-30 21:48 41.31723 -8.69939 1235 ft 160 kts 169°
2026-04-30 21:48 41.30610 -8.69648 1025 ft 162 kts 168°
2026-04-30 21:48 41.29530 -8.69364 828 ft 155 kts 168°
2026-04-30 21:48 41.28494 -8.69095 670 ft 156 kts 168°
2026-04-30 21:49 41.27416 -8.68807 458 ft 155 kts 168°
2026-04-30 21:49 41.26390 -8.68539 269 ft 154 kts 169°
2026-04-30 21:49 41.25350 -8.68268 177 ft 143 kts 169°
2026-04-30 21:49 41.24518 -8.68049 206 ft 101 kts 169°
2026-04-30 21:50 41.23996 -8.67912 222 ft 33 kts 168°
2026-04-30 21:50 41.23898 -8.67858 221 ft 13 kts 120°
2026-04-30 21:50 41.23900 -8.67759 223 ft 7 kts 78°
2026-04-30 21:50 41.23908 -8.67710 227 ft 5 kts 79°
2026-04-30 21:51 41.23915 -8.67665 229 ft 5 kts 79°
2026-04-30 21:51 41.23921 -8.67619 233 ft 5 kts 79°
2026-04-30 21:51 41.23927 -8.67576 234 ft 5 kts 79°
2026-04-30 21:51 41.23923 -8.67533 236 ft 5 kts 112°
2026-04-30 21:52 41.23900 -8.67503 237 ft 5 kts 150°
2026-04-30 21:52 41.23862 -8.67486 238 ft 8 kts 167°
2026-04-30 21:52 41.23795 -8.67467 238 ft 11 kts 168°
2026-04-30 21:52 41.23736 -8.67421 238 ft 10 kts 128°
2026-04-30 21:53 41.23689 -8.67352 241 ft 10 kts 152°
2026-04-30 21:53 41.23636 -8.67329 241 ft 5 kts 152°
2026-04-30 21:53 41.23632 -8.67287 243 ft 5 kts 78°
2026-04-30 21:53 41.23639 -8.67246 244 ft 3 kts 78°
2026-04-30 21:54 41.23639 -8.67245 244 ft 0 kts 78°